Inquirer Daily News

Weather

Get conditions and forecasts for any City, State, ZIP code or Country:  
Northeast Philadelphia, PA
on Wednesday, November 21, 2012

Wednesday
Previous Day Next Day
Daily Summary
 ActualAverage (KTTN)Record (KTTN)
Temperature
Mean Temperature °F 44°F  
Max Temperature 54°F 52°F 75°F (1931)
Min Temperature 35°F 36°F 14°F (1987)
Degree Days
Heating Degree Days 20 21  
Month to date heating degree days 375  
Since 1 July heating degree days 772  
Cooling Degree Days 0 0  
Month to date cooling degree days 0  
Year to date cooling degree days 965  
Moisture
Dew Point 29°F   
Average Humidity 60    
Maximum Humidity 78    
Minimum Humidity 34    
Precipitation
Precipitation 0.00 in 0.10 in 1.51 in (1954)
Month to date precipitation 2.20  
Year to date precipitation 41.63  
Wind
Wind Speed 4 mph   
Max Wind Speed 10 mph   
Max Gust Speed mph   
Visibility 10 miles   
Events     

Key: T is trace of precipitation, MM is missing value
Source: NWS Daily Summary
Time(EST)TemperatureDew PointHumidity Pressure Visibility Wind DirectionWind SpeedGust SpeedPrecipitationEvents Conditions
12:54 AM 39.0°F 30.0°F 70% 30.15 in 10.0 miles North 3.5 mph - N/A   Clear
1:54 AM 39.0°F 30.9°F 73% 30.16 in 10.0 miles NNE 3.5 mph - N/A   Clear
2:54 AM 39.0°F 30.9°F 73% 30.16 in 10.0 miles Calm Calm - N/A   Clear
3:54 AM 37.9°F 28.9°F 70% 30.17 in 10.0 miles NNW 3.5 mph - N/A   Clear
4:54 AM 37.0°F 28.9°F 73% 30.18 in 10.0 miles Calm Calm - N/A   Clear
5:54 AM 37.9°F 30.0°F 73% 30.19 in 10.0 miles Calm Calm - N/A   Clear
6:54 AM 35.1°F 28.9°F 78% 30.20 in 10.0 miles North 3.5 mph - N/A   Clear
7:54 AM 39.9°F 30.0°F 68% 30.22 in 10.0 miles NNE 6.9 mph - N/A   Clear
8:54 AM 45.0°F 32.0°F 60% 30.22 in 10.0 miles NNE 9.2 mph - N/A   Clear
9:54 AM 46.9°F 35.1°F 63% 30.23 in 10.0 miles NE 10.4 mph - N/A   Clear
10:54 AM 51.1°F 34.0°F 52% 30.23 in 10.0 miles NNE 8.1 mph - N/A   Clear
11:54 AM 53.1°F 30.9°F 43% 30.21 in 10.0 miles NNE 10.4 mph - N/A   Clear
12:54 PM 53.1°F 28.0°F 38% 30.19 in 10.0 miles NE 6.9 mph - N/A   Clear
1:54 PM 54.0°F 26.1°F 34% 30.18 in 10.0 miles ENE 5.8 mph - N/A   Clear
2:54 PM 54.0°F 27.0°F 35% 30.18 in 10.0 miles NE 5.8 mph - N/A   Clear
3:54 PM 52.0°F 28.0°F 40% 30.19 in 10.0 miles NNE 6.9 mph - N/A   Clear
4:54 PM 48.0°F 27.0°F 44% 30.21 in 10.0 miles NE 4.6 mph - N/A   Clear
5:54 PM 44.1°F 27.0°F 51% 30.21 in 10.0 miles Calm Calm - N/A   Clear
6:54 PM 41.0°F 27.0°F 57% 30.24 in 10.0 miles NNW 3.5 mph - N/A   Clear
7:54 PM 41.0°F 28.0°F 60% 30.24 in 10.0 miles Calm Calm - N/A   Clear
8:54 PM 39.0°F 28.9°F 67% 30.25 in 10.0 miles NNW 3.5 mph - N/A   Clear
9:54 PM 37.0°F 28.0°F 70% 30.25 in 10.0 miles Calm Calm - N/A   Clear
10:54 PM 36.0°F 28.0°F 73% 30.24 in 10.0 miles Calm Calm - N/A   Clear
11:54 PM 36.0°F 28.0°F 73% 30.25 in 10.0 miles Calm Calm - N/A   Clear
Astronomy
Sunrise:06:52 AM (EST) Moon Rise:12:54 PM (EST)11/21
Sunset:04:39 PM (EST) Moon Set:12:09 AM (EST)11/21
Moon Phase
Nov. 21 Nov. 28 Dec. 06 Dec. 13 Dec. 20

Copyright © 2014 The Weather Underground, Inc.